Home > Weather > Portsmouth > Past weeks

Flag for USA Past Weather in Portsmouth, Virginia, USA — Yesterday and Last 2 Weeks

Now
78 °F

Passing clouds.


Feels Like: 80 °F
Forecast: 74 / 85 °F
Wind: 8 mph from Northeast

Location: Norfolk Naval Air Station

Current Time: Aug 29, 2016 at 12:00:16 AM

Latest Report: Aug 28, 2016 at 10:59 PM


Visibility: 10 mi

Pressure: 30.15 "Hg

Humidity: 79%

Dew Point: 71 °F

Location of PortsmouthLocation

Past Weather in Portsmouth — Graph

°F

Portsmouth Temperature Yesterday

Maximum temperature yesterday: 86 °F (at 12:59 PM)
Minimum temperature yesterday: 78 °F (at 3:59 AM)
Average temperature yesterday: 81 °F

High & Low Weather Summary for the Past Weeks

 TemperatureHumidityPressure
High95 °F (Aug 14, 2:59 PM)96% (Aug 20, 5:59 AM)30.34 "Hg (Aug 20, 5:59 AM)
Low64 °F (Aug 24, 3:59 AM)43% (Aug 22, 2:59 PM)29.77 "Hg (Aug 21, 3:59 PM)
Average81 °F71%30.09 "Hg
* Reported Aug 13 9:59 PM — Aug 28 9:59 PM, Portsmouth, Weather by CustomWeather, © 2016

Note: Actual official high and low records may vary slightly from our data, if they occured in-between our weather recording intervals... More about our weather records

Advertising

Portsmouth Weather History for the Previous 24 Hours

Scroll right to see more
 ConditionsComfort  
Time TempWeatherWind HumidityBarometerVisibility
9:59 PM
Sun, Aug 28
78 °FPassing clouds.9 mph79%30.15 "Hg10 mi
8:59 PM78 °FPassing clouds.10 mph76%30.15 "Hg10 mi
7:59 PM79 °FBroken clouds.8 mph74%30.15 "Hg10 mi
6:59 PM80 °FBroken clouds.13 mph74%30.15 "Hg10 mi
5:59 PM81 °FBroken clouds.10 mph72%30.15 "Hg10 mi
4:59 PM82 °FBroken clouds.10 mph70%30.16 "Hg10 mi
3:59 PM83 °FBroken clouds.15 mph65%30.16 "Hg10 mi
2:59 PM84 °FBroken clouds.13 mph67%30.18 "Hg10 mi
1:59 PM86 °FBroken clouds.14 mph63%30.20 "Hg10 mi
12:59 PM86 °FBroken clouds.12 mph63%30.22 "Hg10 mi
11:59 AM84 °FBroken clouds.14 mph67%30.21 "Hg10 mi
10:59 AM84 °FPartly sunny.12 mph67%30.22 "Hg10 mi
9:59 AM83 °FPartly sunny.14 mph70%30.21 "Hg10 mi
8:59 AM80 °FPartly sunny.12 mph76%30.20 "Hg9 mi
7:59 AM80 °FBroken clouds.13 mph79%30.19 "Hg8 mi
6:59 AM78 °FPartly cloudy.8 mph84%30.17 "Hg7 mi
5:59 AM78 °FPassing clouds.8 mph84%30.16 "Hg8 mi
4:59 AM79 °FOvercast.9 mph82%30.15 "Hg9 mi
3:59 AM78 °FPassing clouds.9 mph84%30.14 "Hg9 mi
2:59 AM79 °FPassing clouds.13 mph82%30.15 "Hg9 mi
1:59 AM79 °FPassing clouds.9 mph84%30.16 "Hg9 mi
12:59 AM79 °FPassing clouds.12 mph84%30.17 "Hg8 mi
Weather by CustomWeather, © 2016

See weather overviewHow to use our weather pages